Time,TemperatureF,DewpointF,PressureIn,WindDirection,WindDirectionDegrees,WindSpeedMPH,WindSpeedGustMPH,Humidity,HourlyPrecipIn,Conditions,Clouds,dailyrainin,SoftwareType,DateUTC
2013-12-07 00:09:00,43.4,31.0,30.09,SSE,150,0.0,1.0,63,0.00,,,0.00,weatherlink.com 1.10,2013-12-07 07:09:00,
2013-12-07 00:24:00,42.2,32.0,30.09,SSE,150,0.0,0.0,67,0.00,,,0.00,weatherlink.com 1.10,2013-12-07 07:24:00,
2013-12-07 00:40:00,41.3,32.0,30.09,SSE,149,0.0,1.0,69,0.00,,,0.00,weatherlink.com 1.10,2013-12-07 07:40:00,
2013-12-07 00:54:00,41.5,32.0,30.09,SSE,149,0.0,1.0,69,0.00,,,0.00,weatherlink.com 1.10,2013-12-07 07:54:00,
2013-12-07 01:09:00,41.3,32.0,30.08,SSE,150,0.0,1.0,70,0.00,,,0.00,weatherlink.com 1.10,2013-12-07 08:09:00,
2013-12-07 01:24:00,42.7,32.0,30.07,ESE,120,0.0,1.0,67,0.00,,,0.00,weatherlink.com 1.10,2013-12-07 08:24:00,
2013-12-07 01:39:00,43.0,32.0,30.07,ESE,120,0.0,1.0,66,0.00,,,0.00,weatherlink.com 1.10,2013-12-07 08:39:00,
2013-12-07 01:54:00,42.4,32.0,30.08,ESE,120,0.0,0.0,68,0.00,,,0.00,weatherlink.com 1.10,2013-12-07 08:54:00,
2013-12-07 02:09:00,41.3,32.0,30.08,ESE,120,0.0,0.0,70,0.00,,,0.00,weatherlink.com 1.10,2013-12-07 09:09:00,
2013-12-07 02:24:00,42.0,32.0,30.08,ESE,120,0.0,1.0,69,0.00,,,0.00,weatherlink.com 1.10,2013-12-07 09:24:00,
2013-12-07 02:39:00,42.1,33.0,30.08,WNW,290,0.0,1.0,70,0.00,,,0.00,weatherlink.com 1.10,2013-12-07 09:39:00,
2013-12-07 02:54:00,41.5,33.0,30.09,WNW,290,0.0,3.0,72,0.00,,,0.00,weatherlink.com 1.10,2013-12-07 09:54:00,
2013-12-07 03:09:00,41.2,33.0,30.08,West,266,0.0,2.0,72,0.00,,,0.00,weatherlink.com 1.10,2013-12-07 10:09:00,
2013-12-07 03:24:00,40.6,33.0,30.08,WNW,297,0.0,2.0,74,0.00,,,0.00,weatherlink.com 1.10,2013-12-07 10:24:00,
2013-12-07 03:39:00,40.4,33.0,30.08,WNW,297,0.0,1.0,75,0.00,,,0.00,weatherlink.com 1.10,2013-12-07 10:39:00,
2013-12-07 03:54:00,40.2,33.0,30.08,WNW,297,0.0,1.0,75,0.00,,,0.00,weatherlink.com 1.10,2013-12-07 10:54:00,
2013-12-07 04:09:00,40.7,33.0,30.07,NE,49,0.0,1.0,74,0.00,,,0.00,weatherlink.com 1.10,2013-12-07 11:09:00,
2013-12-07 04:24:00,40.7,33.0,30.06,East,97,0.0,2.0,74,0.00,,,0.00,weatherlink.com 1.10,2013-12-07 11:24:00,
2013-12-07 04:39:00,40.2,33.0,30.06,ESE,105,0.0,1.0,74,0.00,,,0.00,weatherlink.com 1.10,2013-12-07 11:39:00,
2013-12-07 04:54:00,40.1,32.0,30.06,East,90,1.0,2.0,74,0.00,,,0.00,weatherlink.com 1.10,2013-12-07 11:54:00,
2013-12-07 05:09:00,40.4,33.0,30.06,ESE,105,1.0,2.0,74,0.00,,,0.00,weatherlink.com 1.10,2013-12-07 12:09:00,
2013-12-07 05:24:00,41.4,33.0,30.05,ESE,120,1.0,2.0,71,0.00,,,0.00,weatherlink.com 1.10,2013-12-07 12:24:00,
2013-12-07 05:39:00,42.5,32.0,30.05,ESE,103,2.0,2.0,67,0.00,,,0.00,weatherlink.com 1.10,2013-12-07 12:39:00,
2013-12-07 05:54:00,43.4,31.0,30.04,ESE,103,1.0,1.0,63,0.00,,,0.00,weatherlink.com 1.10,2013-12-07 12:54:00,
2013-12-07 06:09:00,43.5,31.0,30.04,ESE,103,1.0,1.0,62,0.00,,,0.00,weatherlink.com 1.10,2013-12-07 13:09:00,
2013-12-07 06:25:00,43.2,31.0,30.04,East,94,1.0,1.0,62,0.00,,,0.00,weatherlink.com 1.10,2013-12-07 13:25:00,
2013-12-07 06:40:00,43.0,31.0,30.04,ENE,73,2.0,3.0,63,0.00,,,0.00,weatherlink.com 1.10,2013-12-07 13:40:00,
2013-12-07 06:55:00,42.7,31.0,30.04,East,83,1.0,2.0,63,0.00,,,0.00,weatherlink.com 1.10,2013-12-07 13:55:00,
2013-12-07 07:10:00,42.2,31.0,30.05,ESE,110,0.0,1.0,65,0.00,,,0.00,weatherlink.com 1.10,2013-12-07 14:10:00,
2013-12-07 07:25:00,41.5,31.0,30.05,ENE,72,0.0,2.0,67,0.00,,,0.00,weatherlink.com 1.10,2013-12-07 14:25:00,
2013-12-07 07:40:00,41.7,31.0,30.05,ESE,105,1.0,1.0,66,0.00,,,0.00,weatherlink.com 1.10,2013-12-07 14:40:00,
2013-12-07 07:55:00,42.7,31.0,30.05,East,95,0.0,2.0,63,0.00,,,0.00,weatherlink.com 1.10,2013-12-07 14:55:00,
2013-12-07 08:10:00,45.5,31.0,30.06,East,93,0.0,1.0,58,0.00,,,0.00,weatherlink.com 1.10,2013-12-07 15:10:00,
2013-12-07 08:25:00,48.4,31.0,30.07,ENE,70,0.0,2.0,52,0.00,,,0.00,weatherlink.com 1.10,2013-12-07 15:25:00,
2013-12-07 08:40:00,47.7,32.0,30.06,East,95,0.0,1.0,55,0.00,,,0.00,weatherlink.com 1.10,2013-12-07 15:40:00,
2013-12-07 08:55:00,49.5,33.0,30.06,ENE,60,0.0,2.0,54,0.00,,,0.00,weatherlink.com 1.10,2013-12-07 15:55:00,
2013-12-07 09:10:00,51.3,34.0,30.06,ENE,63,1.0,1.0,51,0.00,,,0.00,weatherlink.com 1.10,2013-12-07 16:10:00,
2013-12-07 09:25:00,53.0,34.0,30.07,East,83,1.0,1.0,49,0.00,,,0.00,weatherlink.com 1.10,2013-12-07 16:25:00,
2013-12-07 09:40:00,55.4,34.0,30.07,East,82,0.0,1.0,45,0.00,,,0.00,weatherlink.com 1.10,2013-12-07 16:40:00,
2013-12-07 09:55:00,58.0,35.0,30.07,SW,217,1.0,1.0,42,0.00,,,0.00,weatherlink.com 1.10,2013-12-07 16:55:00,
2013-12-07 10:10:00,55.9,36.0,30.08,WNW,300,4.0,4.0,47,0.00,,,0.00,weatherlink.com 1.10,2013-12-07 17:10:00,
2013-12-07 10:25:00,55.5,36.0,30.08,WNW,285,2.0,3.0,48,0.00,,,0.00,weatherlink.com 1.10,2013-12-07 17:25:00,
2013-12-07 10:40:00,55.4,37.0,30.08,WNW,295,2.0,4.0,51,0.00,,,0.00,weatherlink.com 1.10,2013-12-07 17:40:00,
2013-12-07 10:55:00,57.7,35.0,30.08,SW,233,2.0,4.0,42,0.00,,,0.00,weatherlink.com 1.10,2013-12-07 17:55:00,
2013-12-07 11:10:00,59.1,35.0,30.08,WSW,246,1.0,3.0,40,0.00,,,0.00,weatherlink.com 1.10,2013-12-07 18:10:00,
2013-12-07 11:25:00,61.0,34.0,30.08,WSW,252,2.0,4.0,37,0.00,,,0.00,weatherlink.com 1.10,2013-12-07 18:25:00,
2013-12-07 11:40:00,60.6,35.0,30.07,SW,232,3.0,6.0,39,0.00,,,0.00,weatherlink.com 1.10,2013-12-07 18:40:00,
2013-12-07 11:55:00,60.4,34.0,30.07,SW,228,3.0,7.0,38,0.00,,,0.00,weatherlink.com 1.10,2013-12-07 18:55:00,
2013-12-07 12:10:00,60.7,35.0,30.06,WSW,247,4.0,7.0,38,0.00,,,0.00,weatherlink.com 1.10,2013-12-07 19:10:00,
2013-12-07 12:25:00,60.1,35.0,30.04,SSW,207,2.0,10.0,39,0.00,,,0.00,weatherlink.com 1.10,2013-12-07 19:25:00,
2013-12-07 12:40:00,60.5,35.0,30.04,SSW,203,7.0,7.0,38,0.00,,,0.00,weatherlink.com 1.10,2013-12-07 19:40:00,
2013-12-07 12:55:00,61.2,35.0,30.03,WNW,296,2.0,8.0,37,0.00,,,0.00,weatherlink.com 1.10,2013-12-07 19:55:00,
2013-12-07 13:11:00,61.8,35.0,30.02,SW,217,3.0,7.0,37,0.00,,,0.00,weatherlink.com 1.10,2013-12-07 20:11:00,
2013-12-07 13:26:00,62.1,34.0,30.01,SW,231,5.0,8.0,35,0.00,,,0.00,weatherlink.com 1.10,2013-12-07 20:26:00,
2013-12-07 13:41:00,61.9,34.0,30.00,WSW,251,1.0,9.0,35,0.00,,,0.00,weatherlink.com 1.10,2013-12-07 20:41:00,
2013-12-07 13:56:00,62.3,33.0,30.00,SW,221,4.0,8.0,33,0.00,,,0.00,weatherlink.com 1.10,2013-12-07 20:56:00,
2013-12-07 14:11:00,62.7,32.0,30.00,South,186,3.0,9.0,32,0.00,,,0.00,weatherlink.com 1.10,2013-12-07 21:11:00,
2013-12-07 14:26:00,62.7,31.0,29.99,SW,219,3.0,9.0,31,0.00,,,0.00,weatherlink.com 1.10,2013-12-07 21:26:00,
2013-12-07 14:41:00,62.8,33.0,29.99,WSW,248,4.0,8.0,33,0.00,,,0.00,weatherlink.com 1.10,2013-12-07 21:41:00,
2013-12-07 14:56:00,62.1,33.0,29.98,West,262,3.0,9.0,34,0.00,,,0.00,weatherlink.com 1.10,2013-12-07 21:56:00,
2013-12-07 15:11:00,62.1,32.0,29.98,South,174,3.0,11.0,33,0.00,,,0.00,weatherlink.com 1.10,2013-12-07 22:11:00,
2013-12-07 15:26:00,61.8,32.0,29.97,SW,215,6.0,11.0,33,0.00,,,0.00,weatherlink.com 1.10,2013-12-07 22:26:00,
2013-12-07 15:41:00,62.4,32.0,29.97,SW,218,3.0,11.0,32,0.00,,,0.00,weatherlink.com 1.10,2013-12-07 22:41:00,
2013-12-07 15:56:00,61.7,32.0,29.97,South,184,4.0,11.0,33,0.00,,,0.00,weatherlink.com 1.10,2013-12-07 22:56:00,
2013-12-07 16:11:00,61.8,31.0,29.96,SSE,153,2.0,14.0,32,0.00,,,0.00,weatherlink.com 1.10,2013-12-07 23:11:00,
2013-12-07 16:26:00,61.6,31.0,29.96,SSW,204,2.0,11.0,32,0.00,,,0.00,weatherlink.com 1.10,2013-12-07 23:26:00,
2013-12-07 16:41:00,61.2,31.0,29.96,SSE,152,7.0,13.0,32,0.00,,,0.00,weatherlink.com 1.10,2013-12-07 23:41:00,
2013-12-07 16:56:00,60.2,30.0,29.95,SE,131,11.0,14.0,32,0.00,,,0.00,weatherlink.com 1.10,2013-12-07 23:56:00,
2013-12-07 17:11:00,59.1,30.0,29.96,ESE,122,5.0,13.0,33,0.00,,,0.00,weatherlink.com 1.10,2013-12-08 00:11:00,
2013-12-07 17:26:00,58.3,31.0,29.95,SSE,149,5.0,9.0,35,0.00,,,0.00,weatherlink.com 1.10,2013-12-08 00:26:00,
2013-12-07 17:41:00,57.6,30.0,29.95,SSE,153,6.0,10.0,35,0.00,,,0.00,weatherlink.com 1.10,2013-12-08 00:41:00,
2013-12-07 17:56:00,57.0,31.0,29.95,SE,134,6.0,10.0,37,0.00,,,0.00,weatherlink.com 1.10,2013-12-08 00:56:00,
2013-12-07 18:11:00,57.4,31.0,29.95,SSE,165,4.0,11.0,37,0.00,,,0.00,weatherlink.com 1.10,2013-12-08 01:11:00,
2013-12-07 18:26:00,58.0,32.0,29.95,SSW,198,5.0,11.0,37,0.00,,,0.00,weatherlink.com 1.10,2013-12-08 01:26:00,
2013-12-07 18:41:00,58.4,31.0,29.94,SSW,198,6.0,16.0,36,0.00,,,0.00,weatherlink.com 1.10,2013-12-08 01:41:00,
2013-12-07 18:56:00,58.3,32.0,29.95,South,174,11.0,19.0,37,0.00,,,0.00,weatherlink.com 1.10,2013-12-08 01:56:00,
2013-12-07 19:11:00,58.0,33.0,29.94,SSE,148,8.0,17.0,39,0.00,,,0.00,weatherlink.com 1.10,2013-12-08 02:11:00,
2013-12-07 19:26:00,57.4,33.0,29.95,SE,142,5.0,11.0,40,0.00,,,0.00,weatherlink.com 1.10,2013-12-08 02:26:00,
2013-12-07 19:41:00,56.8,33.0,29.95,SSE,149,7.0,11.0,41,0.00,,,0.00,weatherlink.com 1.10,2013-12-08 02:41:00,
2013-12-07 19:56:00,56.9,33.0,29.95,SSE,163,8.0,14.0,41,0.00,,,0.00,weatherlink.com 1.10,2013-12-08 02:56:00,
2013-12-07 20:11:00,56.4,34.0,29.96,SSW,193,3.0,12.0,43,0.00,,,0.00,weatherlink.com 1.10,2013-12-08 03:11:00,
2013-12-07 20:26:00,56.7,35.0,29.95,SE,124,6.0,16.0,45,0.00,,,0.00,weatherlink.com 1.10,2013-12-08 03:26:00,
2013-12-07 20:41:00,56.8,35.0,29.96,SSE,164,5.0,14.0,45,0.00,,,0.00,weatherlink.com 1.10,2013-12-08 03:41:00,
2013-12-07 20:56:00,56.8,36.0,29.97,SE,124,4.0,11.0,46,0.00,,,0.00,weatherlink.com 1.10,2013-12-08 03:56:00,
2013-12-07 21:11:00,56.1,36.0,29.98,SSE,160,5.0,12.0,47,0.00,,,0.00,weatherlink.com 1.10,2013-12-08 04:11:00,
2013-12-07 21:26:00,54.7,35.0,29.99,SSE,150,8.0,11.0,48,0.00,,,0.00,weatherlink.com 1.10,2013-12-08 04:26:00,
2013-12-07 21:41:00,54.7,36.0,29.99,SSW,193,3.0,8.0,50,0.00,,,0.00,weatherlink.com 1.10,2013-12-08 04:41:00,
2013-12-07 21:56:00,54.3,37.0,29.99,SW,214,3.0,6.0,52,0.00,,,0.00,weatherlink.com 1.10,2013-12-08 04:56:00,
2013-12-07 22:11:00,54.4,38.0,29.99,SSW,210,3.0,6.0,54,0.00,,,0.00,weatherlink.com 1.10,2013-12-08 05:11:00,
2013-12-07 22:26:00,53.6,37.0,30.00,SE,136,4.0,4.0,53,0.00,,,0.00,weatherlink.com 1.10,2013-12-08 05:26:00,
2013-12-07 22:41:00,53.3,36.0,30.00,SE,128,0.0,1.0,53,0.00,,,0.00,weatherlink.com 1.10,2013-12-08 05:41:00,
2013-12-07 22:56:00,53.1,37.0,30.01,WSW,255,0.0,4.0,54,0.00,,,0.00,weatherlink.com 1.10,2013-12-08 05:56:00,
2013-12-07 23:11:00,52.5,37.0,30.02,SE,142,0.0,1.0,55,0.00,,,0.00,weatherlink.com 1.10,2013-12-08 06:11:00,
2013-12-07 23:26:00,52.5,38.0,30.01,SW,217,2.0,3.0,58,0.00,,,0.00,weatherlink.com 1.10,2013-12-08 06:26:00,
2013-12-07 23:41:00,52.7,39.0,30.01,SE,128,1.0,3.0,59,0.00,,,0.00,weatherlink.com 1.10,2013-12-08 06:41:00,
2013-12-07 23:56:00,52.2,38.0,30.01,ENE,72,2.0,3.0,60,0.00,,,0.00,weatherlink.com 1.10,2013-12-08 06:56:00,